EW6496 Weather Reports


Display with metric or nautical units.
time (UTC)temp
F
wind
direction
speed
MPH
gust
MPH
rain 1hr
in
rain 24hr
in
rain mn
in
humidity
%
barometer
mb
20260901005647 75 117 3.0 8.0 0.00 0.00 0.00 55 851.3
20260901005143 76 103 3.0 8.0 0.00 0.00 0.00 53 851.3
20260901004643 76 109 2.0 9.0 0.00 0.00 0.00 50 851.3
20260901004443 77 96 2.0 9.0 0.00 0.00 0.00 49 851.1
20260901003643 77 100 1.0 8.0 0.00 0.00 0.00 47 851.3
20260901003142 77 91 0.0 2.0 0.00 0.00 0.00 49 851.0
20260901002645 77 13 0.0 1.0 0.00 0.00 0.00 48 850.7
20260901002144 77 13 0.0 1.0 0.00 0.00 0.00 48 850.8
20260901001642 78 13 0.0 1.0 0.00 0.00 0.00 47 850.7
20260901001140 78 25 0.0 1.0 0.00 0.00 0.00 49 850.8
20260901000637 78 25 0.0 1.0 0.00 0.00 0.00 46 851.0
20260901000135 79 24 0.0 1.0 0.00 0.00 0.00 46 851.1
20260831235633 79 15 0.0 1.0 0.00 0.00 0.00 44 851.0
20260831235427 80 5 1.0 3.0 0.00 0.00 0.00 43 851.0
20260831234632 80 32 1.0 3.0 0.00 0.00 0.00 41 850.9
20260831234134 79 263 0.0 2.0 0.00 0.00 0.00 42 850.8
20260831233631 79 220 0.0 2.0 0.00 0.00 0.00 42 850.9
20260831233133 79 182 0.0 2.0 0.00 0.00 0.00 42 850.9
20260831232631 79 234 0.0 2.0 0.00 0.00 0.00 43 850.9
20260831232133 79 261 0.0 3.0 0.00 0.00 0.00 44 851.1
20260831231627 79 200 1.0 3.0 0.00 0.00 0.00 43 851.1
20260831231120 79 254 1.0 3.0 0.00 0.00 0.00 43 851.3
20260831230618 79 355 1.0 3.0 0.00 0.00 0.00 43 851.3
20260831230419 79 44 1.0 3.0 0.00 0.00 0.00 42 851.4
20260831225618 80 159 1.0 3.0 0.00 0.00 0.00 42 851.5
20260831225118 80 106 1.0 3.0 0.00 0.00 0.00 41 851.4
20260831224620 82 142 2.0 6.0 0.00 0.00 0.00 38 851.4
20260831224417 83 75 2.0 6.0 0.00 0.00 0.00 35 851.6
20260831223617 83 115 1.0 3.0 0.00 0.00 0.00 34 851.7
20260831223116 83 130 1.0 2.0 0.00 0.00 0.00 32 851.7
20260831222616 83 157 1.0 2.0 0.00 0.00 0.00 32 851.9
20260831222120 84 181 0.0 2.0 0.00 0.00 0.00 32 851.9
20260831221617 84 184 0.0 2.0 0.00 0.00 0.00 31 852.0
20260831221417 84 78 1.0 2.0 0.00 0.00 0.00 33 852.0
20260831220617 83 136 1.0 3.0 0.00 0.00 0.00 32 852.0
20260831220116 83 100 0.0 3.0 0.00 0.00 0.00 33 851.9
20260831215617 83 221 0.0 1.0 0.00 0.00 0.00 33 851.9
20260831215202 83 221 0.0 2.0 0.00 0.00 0.00 34 851.9
20260831214412 83 323 0.0 1.0 0.00 0.00 0.00 33 852.0
20260831214011 84 237 0.0 2.0 0.00 0.00 0.00 33 852.0
20260831212612 85 341 0.0 2.0 0.00 0.00 0.00 34 852.0
20260831212406 85 342 0.0 2.0 0.00 0.00 0.00 29 852.0
20260831211614 86 333 0.0 2.0 0.00 0.00 0.00 34 852.1
20260831211110 86 247 0.0 1.0 0.00 0.00 0.00 30 852.2
20260831210608 85 319 1.0 2.0 0.00 0.00 0.00 30 852.1
20260831210409 85 336 1.0 2.0 0.00 0.00 0.00 31 852.0
20260831205649 85 328 1.0 3.0 0.00 0.00 0.00 31 852.3
20260831204607 86 335 1.0 3.0 0.00 0.00 0.00 29 852.3
20260831204110 86 289 1.0 3.0 0.00 0.00 0.00 29 852.3
20260831203608 86 299 1.0 3.0 0.00 0.00 0.00 28 852.3
20260831203107 86 206 1.0 4.0 0.00 0.00 0.00 27 852.3
20260831202608 86 342 1.0 4.0 0.00 0.00 0.00 30 852.3
20260831202106 86 0 1.0 3.0 0.00 0.00 0.00 30 852.3
20260831201605 86 338 1.0 3.0 0.00 0.00 0.00 29 852.3
20260831201105 87 299 2.0 6.0 0.00 0.00 0.00 30 852.3
20260831200605 87 331 2.0 6.0 0.00 0.00 0.00 28 852.4
20260831200106 86 194 1.0 5.0 0.00 0.00 0.00 29 852.6
20260831195606 87 325 1.0 5.0 0.00 0.00 0.00 26 852.5
20260831195105 87 319 2.0 5.0 0.00 0.00 0.00 27 852.6
20260831194605 87 221 2.0 5.0 0.00 0.00 0.00 26 852.6
20260831194102 87 271 1.0 5.0 0.00 0.00 0.00 29 852.6
20260831193602 88 221 1.0 4.0 0.00 0.00 0.00 28 852.6
20260831193104 89 126 2.0 4.0 0.00 0.00 0.00 26 852.7
20260831192859 88 275 2.0 8.0 0.00 0.00 0.00 27 852.7
20260831192103 89 340 2.0 8.0 0.00 0.00 0.00 26 852.7
20260831191603 89 22 1.0 6.0 0.00 0.00 0.00 30 852.8
20260831191404 89 330 1.0 3.0 0.00 0.00 0.00 31 852.8
20260831190858 88 334 1.0 3.0 0.00 0.00 0.00 33 852.8
20260831185602 85 338 1.0 2.0 0.00 0.00 0.00 32 853.0
20260831185103 85 341 1.0 2.0 0.00 0.00 0.00 36 853.1
20260831184900 85 286 0.0 2.0 0.00 0.00 0.00 37 853.2
20260831184106 84 342 0.0 3.0 0.00 0.00 0.00 39 853.3
20260831183906 84 209 1.0 4.0 0.00 0.00 0.00 35 853.4
20260831183106 84 194 1.0 4.0 0.00 0.00 0.00 34 853.5
20260831182904 83 262 0.0 3.0 0.00 0.00 0.00 38 853.5
20260831182107 80 100 0.0 3.0 0.00 0.00 0.00 41 853.5
20260831181558 80 100 0.0 3.0 0.00 0.00 0.00 44 853.7
20260831181048 79 120 0.0 3.0 0.00 0.00 0.00 43 853.7
20260831180543 80 119 1.0 3.0 0.00 0.00 0.00 43 853.7
20260831180335 79 105 1.0 2.0 0.00 0.00 0.00 45 853.8
20260831175536 78 84 0.0 2.0 0.00 0.00 0.00 44 853.9
20260831175035 78 61 0.0 1.0 0.00 0.00 0.00 45 854.0
20260831174825 81 60 1.0 3.0 0.00 0.00 0.00 43 853.9
20260831174329 81 328 1.0 3.0 0.00 0.00 0.00 41 853.9
20260831173532 80 65 0.0 2.0 0.00 0.00 0.00 41 853.9
20260831173119 80 300 0.0 2.0 0.00 0.00 0.00 45 854.0
20260831172114 76 313 0.0 1.0 0.00 0.00 0.00 53 854.1
20260831171326 77 318 0.0 2.0 0.00 0.00 0.00 46 854.1
20260831170829 77 317 0.0 2.0 0.00 0.00 0.00 45 854.2
20260831170032 77 296 0.0 2.0 0.00 0.00 0.00 47 854.2
20260831165612 76 216 0.0 1.0 0.00 0.00 0.00 50 854.1
20260831164531 76 246 0.0 2.0 0.00 0.00 0.00 43 854.2
20260831164033 75 333 0.0 1.0 0.00 0.00 0.00 53 854.3
20260831163531 76 323 0.0 1.0 0.00 0.00 0.00 50 854.2
20260831163032 77 330 0.0 2.0 0.00 0.00 0.00 51 854.2
20260831162531 75 108 0.0 2.0 0.00 0.00 0.00 49 854.2
20260831162329 76 340 1.0 3.0 0.00 0.00 0.00 49 854.2
20260831161532 76 265 1.0 3.0 0.00 0.00 0.00 48 854.4
20260831161031 77 329 0.0 1.0 0.00 0.00 0.00 50 854.4
20260831160535 77 257 0.0 2.0 0.00 0.00 0.00 51 854.3
20260831160325 76 263 1.0 2.0 0.00 0.00 0.00 55 854.3
20260831155515 76 344 0.0 2.0 0.00 0.00 0.00 51 854.4
20260831155006 75 77 1.0 2.0 0.00 0.00 0.00 56 854.2
20260831154807 74 286 0.0 3.0 0.00 0.00 0.00 55 854.1
20260831154006 74 257 0.0 3.0 0.00 0.00 0.00 60 854.2
20260831153507 72 288 0.0 1.0 0.00 0.00 0.00 58 854.3
20260831153007 70 288 0.0 2.0 0.00 0.00 0.00 65 854.2
20260831152507 68 0 0.0 2.0 0.00 0.00 0.00 66 854.2
20260831152006 68 355 0.0 1.0 0.00 0.00 0.00 66 854.2
20260831151512 68 293 0.0 2.0 0.00 0.00 0.00 67 854.3
20260831151010 67 293 1.0 2.0 0.00 0.00 0.00 65 854.3
20260831150508 67 321 1.0 3.0 0.00 0.00 0.00 69 854.2
20260831150302 67 96 1.0 3.0 0.00 0.00 0.00 66 854.0
20260831145451 67 150 1.0 3.0 0.00 0.00 0.00 65 853.7
20260831144952 67 287 1.0 2.0 0.00 0.00 0.00 66 853.9
20260831144450 67 325 0.0 2.0 0.00 0.00 0.00 69 854.2
20260831143951 66 340 0.0 2.0 0.00 0.00 0.00 69 854.4
20260831143528 66 346 1.0 3.0 0.00 0.00 0.00 67 854.4
20260831142448 66 19 1.0 3.0 0.00 0.00 0.00 69 854.2
20260831141949 65 317 1.0 3.0 0.00 0.00 0.00 70 854.2
20260831141449 65 330 1.0 3.0 0.00 0.00 0.00 71 854.2
20260831140945 64 338 1.0 3.0 0.00 0.00 0.00 71 854.1
20260831140432 64 300 1.0 3.0 0.00 0.00 0.00 72 854.1
20260831135933 63 290 1.0 3.0 0.00 0.00 0.00 73 854.2
20260831135733 63 340 1.0 2.0 0.00 0.00 0.00 74 854.1
20260831135234 63 342 1.0 2.0 0.00 0.00 0.00 74 854.1
20260831134731 62 339 1.0 3.0 0.00 0.00 0.00 74 854.1
20260831133940 62 336 1.0 3.0 0.00 0.00 0.00 74 854.1
20260831133729 62 349 1.0 3.0 0.00 0.00 0.00 74 854.0
20260831133226 62 294 1.0 3.0 0.00 0.00 0.00 74 853.9
20260831132432 62 311 0.0 3.0 0.00 0.00 0.00 74 853.8
20260831131929 62 317 0.0 1.0 0.00 0.00 0.00 74 853.9
20260831131424 62 317 0.0 1.0 0.00 0.00 0.00 73 853.8
20260831130926 62 306 0.0 1.0 0.00 0.00 0.00 74 853.7
20260831130720 62 306 0.0 0.0 0.00 0.00 0.00 74 853.5
20260831125925 62 306 0.0 0.0 0.00 0.00 0.00 75 853.5
20260831125424 62 306 0.0 0.0 0.00 0.00 0.00 74 853.5
20260831125223 62 306 0.0 1.0 0.00 0.00 0.00 75 853.4
20260831124424 61 306 0.0 2.0 0.00 0.00 0.00 76 853.3
20260831123927 61 306 0.0 2.0 0.00 0.00 0.00 76 853.1
20260831123420 61 341 0.0 2.0 0.00 0.00 0.00 77 853.2
20260831122921 61 24 0.0 1.0 0.00 0.00 0.00 76 853.1
20260831122422 61 63 0.0 1.0 0.00 0.00 0.00 76 853.2
20260831122311 62 111 0.0 0.0 0.00 0.00 0.00 75 853.2
20260831120921 61 111 0.0 1.0 0.00 0.00 0.00 77 853.1
20260831120420 61 111 0.0 1.0 0.00 0.00 0.00 78 853.1
20260831115921 61 111 0.0 0.0 0.00 0.00 0.00 78 853.1
20260831115719 60 111 0.0 0.0 0.00 0.00 0.00 78 853.0
20260831115213 60 111 0.0 0.0 0.00 0.00 0.00 80 853.0
20260831114406 61 111 0.0 1.0 0.00 0.00 0.00 82 852.9
20260831113906 62 111 0.0 1.0 0.00 0.00 0.00 85 852.9
20260831113406 61 111 0.0 0.0 0.00 0.00 0.00 81 852.9
20260831112903 61 111 0.0 0.0 0.00 0.00 0.00 75 852.9
20260831112404 61 111 0.0 0.0 0.00 0.00 0.00 74 852.9
20260831111903 61 111 0.0 0.0 0.00 0.00 0.00 75 852.9
20260831111404 61 111 0.0 0.0 0.00 0.00 0.00 75 852.9
20260831110903 61 111 0.0 0.0 0.00 0.00 0.00 74 852.9
20260831110405 62 111 0.0 0.0 0.00 0.00 0.00 73 853.0
20260831105903 62 111 0.0 0.0 0.00 0.00 0.00 72 852.9
20260831105705 63 111 0.0 0.0 0.00 0.00 0.00 72 853.0
20260831104904 63 111 0.0 1.0 0.00 0.00 0.00 73 853.1
20260831104403 63 111 0.0 1.0 0.00 0.00 0.00 73 853.1
20260831103904 63 111 0.0 1.0 0.00 0.00 0.00 71 853.1
20260831103702 64 111 0.0 1.0 0.00 0.00 0.00 72 853.1
20260831102903 63 111 0.0 0.0 0.00 0.00 0.00 73 853.0
20260831102404 63 111 0.0 0.0 0.00 0.00 0.00 72 853.1
20260831101905 64 111 1.0 2.0 0.00 0.00 0.00 70 853.0
20260831101403 64 111 1.0 2.0 0.00 0.00 0.00 71 853.1
20260831100905 64 110 0.0 2.0 0.00 0.00 0.00 70 853.1
20260831100402 65 293 0.0 0.0 0.00 0.00 0.00 69 853.1
20260831095902 65 293 0.0 0.0 0.00 0.00 0.00 69 853.1
20260831095700 64 293 0.0 0.0 0.00 0.00 0.00 70 853.0
20260831095158 64 293 0.0 0.0 0.00 0.00 0.00 70 852.7
20260831094403 64 293 0.0 0.0 0.00 0.00 0.00 71 852.7
20260831093906 64 293 0.0 0.0 0.00 0.00 0.00 71 852.7
20260831093658 64 293 0.0 0.0 0.00 0.00 0.00 71 852.6
20260831092853 64 293 0.0 0.0 0.00 0.00 0.00 70 852.6
20260831092342 64 293 0.0 0.0 0.00 0.00 0.00 69 852.6
20260831091838 65 293 0.0 1.0 0.00 0.00 0.00 68 852.6
20260831091339 65 293 0.0 1.0 0.00 0.00 0.00 70 852.6
20260831091136 65 293 0.0 0.0 0.00 0.00 0.00 68 852.5
20260831090415 65 293 0.0 0.0 0.00 0.00 0.00 68 852.6
20260831085337 65 293 0.0 0.0 0.00 0.00 0.00 67 852.3
20260831084835 66 293 0.0 0.0 0.00 0.00 0.00 66 852.3
20260831084335 66 293 0.0 0.0 0.00 0.00 0.00 66 852.4
20260831084135 66 293 0.0 0.0 0.00 0.00 0.00 66 852.3
20260831083333 65 293 0.0 0.0 0.00 0.00 0.00 66 852.2
20260831082831 65 293 0.0 0.0 0.00 0.00 0.00 67 852.4
20260831082624 65 293 0.0 0.0 0.00 0.00 0.00 66 852.4
20260831082127 65 293 0.0 0.0 0.00 0.00 0.00 65 852.3
20260831081325 66 293 0.0 0.0 0.00 0.00 0.00 65 852.4
20260831080825 66 293 0.0 0.0 0.00 0.00 0.00 64 852.5
20260831080321 67 293 0.0 1.0 0.00 0.00 0.00 64 852.5
20260831075818 67 293 0.0 1.0 0.00 0.00 0.00 63 852.6
20260831075316 67 293 0.0 1.0 0.00 0.00 0.00 62 852.8
20260831074816 67 277 0.0 2.0 0.00 0.00 0.00 62 852.8
20260831074313 67 328 0.0 2.0 0.00 0.00 0.00 62 852.9
20260831073813 67 236 0.0 2.0 0.00 0.00 0.00 61 853.0
20260831073312 68 332 1.0 2.0 0.00 0.00 0.00 61 853.1
20260831072813 68 11 1.0 2.0 0.00 0.00 0.00 60 853.3
20260831072310 68 345 1.0 2.0 0.00 0.00 0.00 60 853.4
20260831071810 68 317 0.0 1.0 0.00 0.00 0.00 59 853.4
20260831071309 68 334 1.0 2.0 0.00 0.00 0.00 58 853.6
20260831070807 68 342 1.0 3.0 0.00 0.00 0.00 57 853.6
20260831070307 68 340 1.0 3.0 0.00 0.00 0.00 57 853.8
20260831065805 68 246 1.0 3.0 0.00 0.00 0.00 57 853.9
20260831065306 68 340 0.0 2.0 0.00 0.00 0.00 56 853.9
20260831064804 68 261 0.0 2.0 0.00 0.00 0.00 55 854.0
20260831064303 68 296 0.0 2.0 0.00 0.00 0.00 55 853.9
20260831063804 69 273 0.0 2.0 0.00 0.00 0.00 55 853.9
20260831063303 69 21 1.0 2.0 0.00 0.00 0.00 55 853.9
20260831063113 69 321 1.0 2.0 0.00 0.00 0.00 55 853.7
20260831062305 69 317 0.0 2.0 0.00 0.00 0.00 55 853.7
20260831061803 68 87 0.0 2.0 0.00 0.00 0.00 57 853.7
20260831061302 68 355 0.0 2.0 0.00 0.00 0.00 58 853.7
20260831060803 68 355 0.0 2.0 0.00 0.00 0.00 58 853.7
20260831060348 68 26 0.0 1.0 0.00 0.00 0.00 58 853.6
20260831055306 69 124 0.0 1.0 0.00 0.00 0.00 57 853.8
20260831054804 69 124 0.0 1.0 0.00 0.00 0.00 56 853.8
20260831054306 69 107 0.0 1.0 0.00 0.00 0.00 56 854.0
20260831053803 69 107 0.0 2.0 0.00 0.00 0.00 57 854.0
20260831053305 69 107 0.0 2.0 0.00 0.00 0.00 55 854.0
20260831053106 69 335 0.0 2.0 0.00 0.00 0.00 56 854.0
20260831052307 69 335 0.0 2.0 0.00 0.00 0.00 58 854.0
20260831051804 69 335 0.0 2.0 0.00 0.00 0.00 57 854.1
20260831051304 69 340 0.0 2.0 0.00 0.00 0.00 58 854.2
20260831050805 69 321 0.0 2.0 0.00 0.00 0.00 58 854.2
20260831050556 70 310 0.0 1.0 0.00 0.00 0.00 57 854.2
20260831045805 70 310 0.0 1.0 0.00 0.00 0.00 56 854.1
20260831045306 70 307 0.0 1.0 0.00 0.00 0.00 56 854.1
20260831045108 70 306 0.0 2.0 0.00 0.00 0.00 57 854.1
20260831044350 70 246 0.0 2.0 0.00 0.00 0.00 56 854.1
20260831043303 70 340 0.0 1.0 0.00 0.00 0.00 56 854.0
20260831042803 70 325 0.0 1.0 0.00 0.00 0.00 56 853.8
20260831042306 70 325 0.0 1.0 0.00 0.00 0.00 56 853.7
20260831041802 70 325 0.0 1.0 0.00 0.00 0.00 54 853.7
20260831041303 71 322 0.0 1.0 0.00 0.00 0.00 55 853.6
20260831040803 71 322 0.0 1.0 0.00 0.00 0.00 53 853.7
20260831040344 71 322 0.0 1.0 0.00 0.00 0.00 53 853.7
20260831035306 71 330 0.0 0.0 0.00 0.00 0.00 53 853.7
20260831035105 71 330 0.0 1.0 0.00 0.00 0.00 54 853.6
20260831034303 71 330 0.0 1.0 0.00 0.00 0.00 54 853.6
20260831033802 71 330 0.0 0.0 0.00 0.00 0.00 55 853.5
20260831033555 71 330 0.0 0.0 0.00 0.00 0.00 54 853.3
20260831032805 72 330 0.0 0.0 0.00 0.00 0.00 52 853.2
20260831032306 72 330 0.0 0.0 0.00 0.00 0.00 52 853.3
20260831031806 73 330 0.0 0.0 0.00 0.00 0.00 51 853.4
20260831031307 73 330 0.0 1.0 0.00 0.00 0.00 50 853.4
20260831030806 73 330 0.0 1.0 0.00 0.00 0.00 51 853.4
20260831030600 73 330 0.0 2.0 0.00 0.00 0.00 49 853.1
20260831025803 73 319 0.0 2.0 0.00 0.00 0.00 50 852.9
20260831025306 73 247 1.0 1.0 0.00 0.00 0.00 50 852.6
20260831024803 74 277 1.0 2.0 0.00 0.00 0.00 49 852.3
20260831024302 74 298 1.0 2.0 0.00 0.00 0.00 49 852.3
20260831023805 74 338 0.0 2.0 0.00 0.00 0.00 48 852.2
20260831023303 74 92 0.0 2.0 0.00 0.00 0.00 48 852.1
20260831022804 74 5 0.0 1.0 0.00 0.00 0.00 48 851.9
20260831022306 74 240 0.0 1.0 0.00 0.00 0.00 47 851.9
20260831021802 74 243 0.0 1.0 0.00 0.00 0.00 48 851.8
20260831021302 74 281 0.0 1.0 0.00 0.00 0.00 47 851.7
20260831020803 75 324 1.0 3.0 0.00 0.00 0.00 46 851.6
20260831020303 75 306 1.0 5.0 0.00 0.00 0.00 47 851.5
20260831015806 75 300 1.0 5.0 0.00 0.00 0.00 46 851.2
20260831015307 74 186 1.0 3.0 0.00 0.00 0.00 47 851.1
20260831014805 74 200 1.0 4.0 0.00 0.00 0.00 47 850.9
20260831014305 74 268 2.0 4.0 0.00 0.00 0.00 52 850.8
20260831013803 75 224 1.0 4.0 0.00 0.00 0.00 50 850.9
20260831013306 76 205 2.0 4.0 0.00 0.00 0.00 48 850.9
20260831012805 77 210 2.0 5.0 0.00 0.00 0.00 42 850.9
20260831012606 77 351 2.0 6.0 0.00 0.00 0.00 42 850.8
20260831011806 77 262 2.0 6.0 0.00 0.00 0.00 41 850.8
20260831011308 77 248 2.0 6.0 0.00 0.00 0.00 41 850.7
20260831010807 77 281 2.0 5.0 0.00 0.00 0.00 42 850.7
20260831010306 77 258 2.0 6.0 0.00 0.00 0.00 42 850.6
20260831005802 77 312 2.0 6.0 0.00 0.00 0.00 43 850.6